Time,TemperatureF,DewpointF,PressureIn,WindDirection,WindDirectionDegrees,WindSpeedMPH,WindSpeedGustMPH,Humidity,HourlyPrecipIn,Conditions,Clouds,dailyrainin,SoftwareType,DateUTC
2013-09-07 00:06:00,63.0,58.1,32.90,North,0,0.0,0.0,84,0.00,,,-99.99,pyweather 0.1,2013-09-07 07:06:00,
2013-09-07 00:14:00,63.0,58.1,32.90,North,0,0.0,0.0,84,0.00,,,-99.99,pyweather 0.1,2013-09-07 07:14:00,
2013-09-07 00:22:00,63.1,58.6,32.90,North,0,0.0,0.0,85,0.00,,,-99.99,pyweather 0.1,2013-09-07 07:22:00,
2013-09-07 00:30:00,63.1,58.6,32.90,North,0,0.0,0.0,85,0.00,,,-99.99,pyweather 0.1,2013-09-07 07:30:00,
2013-09-07 00:38:00,63.1,58.6,32.93,North,0,0.0,0.0,85,0.00,,,-99.99,pyweather 0.1,2013-09-07 07:38:00,
2013-09-07 00:46:00,63.3,59.1,32.93,North,0,0.0,0.0,86,0.00,,,-99.99,pyweather 0.1,2013-09-07 07:46:00,
2013-09-07 00:54:00,63.3,59.1,32.93,North,0,0.0,0.0,86,0.00,,,-99.99,pyweather 0.1,2013-09-07 07:54:00,
2013-09-07 01:02:00,63.3,59.1,32.93,North,0,0.0,0.0,86,0.00,,,-99.99,pyweather 0.1,2013-09-07 08:02:00,
2013-09-07 01:10:00,63.3,59.1,32.93,North,0,0.0,0.0,86,0.00,,,-99.99,pyweather 0.1,2013-09-07 08:10:00,
2013-09-07 01:18:00,63.3,59.1,32.93,North,0,0.0,0.0,86,0.00,,,-99.99,pyweather 0.1,2013-09-07 08:18:00,
2013-09-07 01:26:00,63.3,59.1,32.93,North,0,0.0,0.0,86,0.00,,,-99.99,pyweather 0.1,2013-09-07 08:26:00,
2013-09-07 01:34:00,63.5,59.2,32.93,North,0,0.0,0.0,86,0.00,,,-99.99,pyweather 0.1,2013-09-07 08:34:00,
2013-09-07 01:42:00,63.5,59.2,32.93,North,0,0.0,0.0,86,0.00,,,-99.99,pyweather 0.1,2013-09-07 08:42:00,
2013-09-07 01:50:00,63.5,59.6,32.90,North,0,0.0,0.0,87,0.00,,,-99.99,pyweather 0.1,2013-09-07 08:50:00,
2013-09-07 01:58:00,63.5,59.2,32.90,North,0,0.0,0.0,86,0.00,,,-99.99,pyweather 0.1,2013-09-07 08:58:00,
2013-09-07 02:06:00,63.5,59.2,32.93,North,0,0.0,0.0,86,0.00,,,-99.99,pyweather 0.1,2013-09-07 09:06:00,
2013-09-07 02:14:00,63.5,59.2,32.93,North,0,0.0,0.0,86,0.00,,,-99.99,pyweather 0.1,2013-09-07 09:14:00,
2013-09-07 02:22:00,63.3,59.1,32.90,North,0,0.0,0.0,86,0.00,,,-99.99,pyweather 0.1,2013-09-07 09:22:00,
2013-09-07 02:30:00,63.3,59.1,32.90,North,0,0.0,0.0,86,0.00,,,-99.99,pyweather 0.1,2013-09-07 09:30:00,
2013-09-07 02:38:00,63.3,59.1,32.90,North,0,0.0,0.0,86,0.00,,,-99.99,pyweather 0.1,2013-09-07 09:38:00,
2013-09-07 02:46:00,63.3,59.1,32.90,North,0,0.0,0.0,86,0.00,,,-99.99,pyweather 0.1,2013-09-07 09:46:00,
2013-09-07 02:54:00,63.1,58.9,32.90,North,0,0.0,0.0,86,0.00,,,-99.99,pyweather 0.1,2013-09-07 09:54:00,
2013-09-07 03:02:00,63.1,58.9,32.90,North,0,0.0,0.0,86,0.00,,,-99.99,pyweather 0.1,2013-09-07 10:02:00,
2013-09-07 03:10:00,63.1,58.9,32.90,North,0,0.0,0.0,86,0.00,,,-99.99,pyweather 0.1,2013-09-07 10:10:00,
2013-09-07 03:18:00,63.1,59.2,32.90,North,0,0.0,0.0,87,0.00,,,-99.99,pyweather 0.1,2013-09-07 10:18:00,
2013-09-07 03:26:00,63.1,58.9,32.90,North,0,0.0,0.0,86,0.00,,,-99.99,pyweather 0.1,2013-09-07 10:26:00,
2013-09-07 03:34:00,63.1,58.9,32.90,North,0,0.0,0.0,86,0.00,,,-99.99,pyweather 0.1,2013-09-07 10:34:00,
2013-09-07 03:42:00,63.1,59.2,32.90,North,0,0.0,0.0,87,0.00,,,-99.99,pyweather 0.1,2013-09-07 10:42:00,
2013-09-07 03:50:00,63.1,59.2,32.90,North,0,0.0,0.0,87,0.00,,,-99.99,pyweather 0.1,2013-09-07 10:50:00,
2013-09-07 03:58:00,63.1,59.2,32.90,North,0,0.0,0.0,87,0.00,,,-99.99,pyweather 0.1,2013-09-07 10:58:00,
2013-09-07 04:06:00,63.1,59.2,32.90,North,0,0.0,0.0,87,0.00,,,-99.99,pyweather 0.1,2013-09-07 11:06:00,
2013-09-07 04:14:00,63.1,59.2,32.90,North,0,0.0,0.0,87,0.00,,,-99.99,pyweather 0.1,2013-09-07 11:14:00,
2013-09-07 04:22:00,63.1,59.2,32.90,North,0,0.0,0.0,87,0.00,,,-99.99,pyweather 0.1,2013-09-07 11:22:00,
2013-09-07 04:30:00,63.1,59.2,32.90,North,0,0.0,0.0,87,0.00,,,-99.99,pyweather 0.1,2013-09-07 11:30:00,
2013-09-07 04:38:00,63.1,59.2,32.90,North,0,0.0,0.0,87,0.00,,,-99.99,pyweather 0.1,2013-09-07 11:38:00,
2013-09-07 04:46:00,63.1,59.2,32.90,North,0,0.0,0.0,87,0.00,,,-99.99,pyweather 0.1,2013-09-07 11:46:00,
2013-09-07 04:54:00,63.1,59.2,32.87,North,0,0.0,0.0,87,0.00,,,-99.99,pyweather 0.1,2013-09-07 11:54:00,
2013-09-07 05:02:00,63.1,59.2,32.90,North,0,0.0,0.0,87,0.00,,,-99.99,pyweather 0.1,2013-09-07 12:02:00,
2013-09-07 05:10:00,63.0,59.0,32.90,North,0,0.0,0.0,87,0.00,,,-99.99,pyweather 0.1,2013-09-07 12:10:00,
2013-09-07 05:18:00,63.0,59.0,32.90,North,0,0.0,0.0,87,0.00,,,-99.99,pyweather 0.1,2013-09-07 12:18:00,
2013-09-07 05:26:00,63.0,59.4,32.90,North,0,0.0,0.0,88,0.00,,,-99.99,pyweather 0.1,2013-09-07 12:26:00,
2013-09-07 05:34:00,63.0,59.4,32.90,North,0,0.0,0.0,88,0.00,,,-99.99,pyweather 0.1,2013-09-07 12:34:00,
2013-09-07 05:42:00,63.0,59.4,32.90,North,0,0.0,0.0,88,0.00,,,-99.99,pyweather 0.1,2013-09-07 12:42:00,
2013-09-07 05:50:00,63.0,59.4,32.90,North,0,0.0,0.0,88,0.00,,,-99.99,pyweather 0.1,2013-09-07 12:50:00,
2013-09-07 05:58:00,63.0,59.4,32.90,North,0,0.0,0.0,88,0.00,,,-99.99,pyweather 0.1,2013-09-07 12:58:00,
2013-09-07 06:06:00,63.0,59.4,32.90,North,0,0.0,0.0,88,0.00,,,-99.99,pyweather 0.1,2013-09-07 13:06:00,
2013-09-07 06:14:00,63.0,59.4,32.90,North,0,0.0,0.0,88,0.00,,,-99.99,pyweather 0.1,2013-09-07 13:14:00,
2013-09-07 06:22:00,63.0,59.4,32.90,North,0,0.0,0.0,88,0.00,,,-99.99,pyweather 0.1,2013-09-07 13:22:00,
2013-09-07 06:30:00,63.0,59.7,32.90,North,0,0.0,0.0,89,0.00,,,-99.99,pyweather 0.1,2013-09-07 13:30:00,
2013-09-07 06:39:00,63.0,59.7,32.90,North,0,0.0,0.0,89,0.00,,,-99.99,pyweather 0.1,2013-09-07 13:39:00,
2013-09-07 06:47:00,63.0,59.7,32.90,North,0,0.0,0.0,89,0.00,,,-99.99,pyweather 0.1,2013-09-07 13:47:00,
2013-09-07 06:55:00,63.0,59.7,32.90,North,0,0.0,0.0,89,0.00,,,-99.99,pyweather 0.1,2013-09-07 13:55:00,
2013-09-07 07:03:00,63.0,59.7,32.90,North,0,0.0,0.0,89,0.00,,,-99.99,pyweather 0.1,2013-09-07 14:03:00,
2013-09-07 07:11:00,63.0,59.7,32.90,North,0,0.0,0.0,89,0.00,,,-99.99,pyweather 0.1,2013-09-07 14:11:00,
2013-09-07 07:19:00,63.0,59.7,32.90,North,0,0.0,0.0,89,0.00,,,-99.99,pyweather 0.1,2013-09-07 14:19:00,
2013-09-07 07:27:00,63.0,59.7,32.90,North,0,0.0,0.0,89,0.00,,,-99.99,pyweather 0.1,2013-09-07 14:27:00,
2013-09-07 07:35:00,63.0,59.7,32.90,North,0,0.0,0.0,89,0.00,,,-99.99,pyweather 0.1,2013-09-07 14:35:00,
2013-09-07 07:43:00,63.0,59.7,32.90,North,0,0.0,0.0,89,0.00,,,-99.99,pyweather 0.1,2013-09-07 14:43:00,
2013-09-07 07:51:00,63.1,59.8,32.90,North,0,0.0,0.0,89,0.00,,,-99.99,pyweather 0.1,2013-09-07 14:51:00,
2013-09-07 07:59:00,63.1,59.8,32.90,North,0,0.0,0.0,89,0.00,,,-99.99,pyweather 0.1,2013-09-07 14:59:00,
2013-09-07 08:07:00,63.1,59.8,32.90,North,0,0.0,0.0,89,0.00,,,-99.99,pyweather 0.1,2013-09-07 15:07:00,
2013-09-07 08:15:00,63.3,60.0,32.90,North,0,0.0,0.0,89,0.00,,,-99.99,pyweather 0.1,2013-09-07 15:15:00,
2013-09-07 08:23:00,63.5,60.2,32.90,North,0,0.0,0.0,89,0.00,,,-99.99,pyweather 0.1,2013-09-07 15:23:00,
2013-09-07 08:31:00,63.5,60.2,32.90,North,0,0.0,0.0,89,0.00,,,-99.99,pyweather 0.1,2013-09-07 15:31:00,
2013-09-07 08:39:00,63.5,60.2,32.90,North,0,0.0,0.0,89,0.00,,,-99.99,pyweather 0.1,2013-09-07 15:39:00,
2013-09-07 08:47:00,63.5,60.2,32.90,North,0,0.0,0.0,89,0.00,,,-99.99,pyweather 0.1,2013-09-07 15:47:00,
2013-09-07 08:55:00,63.5,60.2,32.87,North,0,0.0,0.0,89,0.00,,,-99.99,pyweather 0.1,2013-09-07 15:55:00,
2013-09-07 09:03:00,63.7,60.7,32.87,North,0,0.0,0.0,90,0.00,,,-99.99,pyweather 0.1,2013-09-07 16:03:00,
2013-09-07 09:11:00,63.9,60.9,32.87,North,0,0.0,0.0,90,0.00,,,-99.99,pyweather 0.1,2013-09-07 16:11:00,
2013-09-07 09:19:00,64.0,61.0,32.87,North,0,0.0,0.0,90,0.00,,,-99.99,pyweather 0.1,2013-09-07 16:19:00,
2013-09-07 09:27:00,64.2,61.2,32.87,North,0,0.0,0.0,90,0.00,,,-99.99,pyweather 0.1,2013-09-07 16:27:00,
2013-09-07 09:36:00,64.2,61.2,32.90,North,0,0.0,0.0,90,0.00,,,-99.99,pyweather 0.1,2013-09-07 16:36:00,
2013-09-07 09:44:00,64.2,60.9,32.90,North,0,0.0,0.0,89,0.00,,,-99.99,pyweather 0.1,2013-09-07 16:44:00,
2013-09-07 09:52:00,64.2,60.9,32.90,North,0,0.0,0.0,89,0.00,,,-99.99,pyweather 0.1,2013-09-07 16:52:00,
2013-09-07 10:00:00,64.4,60.8,32.90,North,0,0.0,0.0,88,0.00,,,-99.99,pyweather 0.1,2013-09-07 17:00:00,
2013-09-07 10:08:00,64.4,60.5,32.90,North,0,0.0,0.0,87,0.00,,,-99.99,pyweather 0.1,2013-09-07 17:08:00,
2013-09-07 10:16:00,64.4,60.5,32.90,North,0,0.0,0.0,87,0.00,,,-99.99,pyweather 0.1,2013-09-07 17:16:00,
2013-09-07 10:24:00,64.4,60.1,32.90,North,0,0.0,0.0,86,0.00,,,-99.99,pyweather 0.1,2013-09-07 17:24:00,
2013-09-07 10:32:00,64.6,60.3,32.90,North,0,0.0,0.0,86,0.00,,,-99.99,pyweather 0.1,2013-09-07 17:32:00,
2013-09-07 10:40:00,64.8,60.2,32.90,North,0,0.0,0.0,85,0.00,,,-99.99,pyweather 0.1,2013-09-07 17:40:00,
2013-09-07 10:48:00,64.8,60.2,32.90,North,0,0.0,0.0,85,0.00,,,-99.99,pyweather 0.1,2013-09-07 17:48:00,
2013-09-07 10:56:00,64.8,60.2,32.90,North,0,0.0,0.0,85,0.00,,,-99.99,pyweather 0.1,2013-09-07 17:56:00,
2013-09-07 11:04:00,64.9,60.0,32.90,North,0,0.0,0.0,84,0.00,,,-99.99,pyweather 0.1,2013-09-07 18:04:00,
2013-09-07 11:12:00,64.9,60.0,32.90,North,0,0.0,0.0,84,0.00,,,-99.99,pyweather 0.1,2013-09-07 18:12:00,
2013-09-07 11:20:00,65.1,60.2,32.90,North,0,0.0,0.0,84,0.00,,,-99.99,pyweather 0.1,2013-09-07 18:20:00,
2013-09-07 11:28:00,65.3,60.3,32.90,North,0,0.0,0.0,84,0.00,,,-99.99,pyweather 0.1,2013-09-07 18:28:00,
2013-09-07 11:36:00,65.7,60.4,32.87,North,0,0.0,0.0,83,0.00,,,-99.99,pyweather 0.1,2013-09-07 18:36:00,
2013-09-07 11:44:00,66.0,60.4,32.87,North,0,0.0,0.0,82,0.00,,,-99.99,pyweather 0.1,2013-09-07 18:44:00,
2013-09-07 11:52:00,66.2,59.9,32.90,North,0,0.0,0.0,80,0.00,,,-99.99,pyweather 0.1,2013-09-07 18:52:00,
2013-09-07 12:00:00,66.2,59.5,32.90,North,0,0.0,0.0,79,0.00,,,-99.99,pyweather 0.1,2013-09-07 19:00:00,
2013-09-07 12:08:00,66.2,59.2,32.87,North,0,0.0,0.0,78,0.00,,,-99.99,pyweather 0.1,2013-09-07 19:08:00,
2013-09-07 12:16:00,66.4,59.3,32.87,North,0,0.0,0.0,78,0.00,,,-99.99,pyweather 0.1,2013-09-07 19:16:00,
2013-09-07 12:24:00,66.6,59.5,32.87,North,0,0.0,0.0,78,0.00,,,-99.99,pyweather 0.1,2013-09-07 19:24:00,
2013-09-07 12:32:00,66.9,59.1,32.87,North,0,0.0,0.0,76,0.00,,,-99.99,pyweather 0.1,2013-09-07 19:32:00,
2013-09-07 12:40:00,67.3,59.1,32.87,North,0,0.0,0.0,75,0.00,,,-99.99,pyweather 0.1,2013-09-07 19:40:00,
2013-09-07 12:48:00,67.5,58.5,32.87,North,0,0.0,0.0,73,0.00,,,-99.99,pyweather 0.1,2013-09-07 19:48:00,
2013-09-07 12:56:00,67.5,57.7,32.87,North,0,0.0,0.0,71,0.00,,,-99.99,pyweather 0.1,2013-09-07 19:56:00,
2013-09-07 13:04:00,67.6,57.5,32.87,North,0,0.0,0.0,70,0.00,,,-99.99,pyweather 0.1,2013-09-07 20:04:00,
2013-09-07 13:12:00,68.0,57.1,32.87,North,0,0.0,0.0,68,0.00,,,-99.99,pyweather 0.1,2013-09-07 20:12:00,
2013-09-07 13:20:00,68.5,57.6,32.87,North,0,0.0,0.0,68,0.00,,,-99.99,pyweather 0.1,2013-09-07 20:20:00,
2013-09-07 13:28:00,68.7,57.7,32.87,North,0,0.0,0.0,68,0.00,,,-99.99,pyweather 0.1,2013-09-07 20:28:00,
2013-09-07 13:36:00,68.9,57.5,32.87,North,0,0.0,0.0,67,0.00,,,-99.99,pyweather 0.1,2013-09-07 20:36:00,
2013-09-07 13:44:00,69.1,57.3,32.87,North,0,0.0,0.0,66,0.00,,,-99.99,pyweather 0.1,2013-09-07 20:44:00,
2013-09-07 13:52:00,69.1,56.4,32.87,North,0,0.0,0.0,64,0.00,,,-99.99,pyweather 0.1,2013-09-07 20:52:00,
2013-09-07 14:00:00,70.0,57.7,32.87,North,0,0.0,0.0,65,0.00,,,-99.99,pyweather 0.1,2013-09-07 21:00:00,
2013-09-07 14:08:00,71.2,56.2,32.87,North,0,0.0,0.0,59,0.00,,,-99.99,pyweather 0.1,2013-09-07 21:08:00,
2013-09-07 14:16:00,72.1,55.6,32.87,North,0,0.0,0.0,56,0.00,,,-99.99,pyweather 0.1,2013-09-07 21:16:00,
2013-09-07 14:24:00,72.7,54.1,32.87,North,0,0.0,0.0,52,0.00,,,-99.99,pyweather 0.1,2013-09-07 21:24:00,
2013-09-07 14:32:00,73.0,54.9,32.84,North,0,0.0,0.0,53,0.00,,,-99.99,pyweather 0.1,2013-09-07 21:32:00,
2013-09-07 14:40:00,73.9,54.7,32.84,North,0,0.0,0.0,51,0.00,,,-99.99,pyweather 0.1,2013-09-07 21:40:00,
2013-09-07 14:48:00,74.7,53.1,32.87,North,0,0.0,0.0,47,0.00,,,-99.99,pyweather 0.1,2013-09-07 21:48:00,
2013-09-07 14:56:00,75.9,54.3,32.87,North,0,0.0,0.0,47,0.00,,,-99.99,pyweather 0.1,2013-09-07 21:56:00,
2013-09-07 15:04:00,76.1,51.4,32.87,North,0,0.0,0.0,42,0.00,,,-99.99,pyweather 0.1,2013-09-07 22:04:00,
2013-09-07 15:12:00,76.1,53.2,32.87,North,0,0.0,0.0,45,0.00,,,-99.99,pyweather 0.1,2013-09-07 22:12:00,
2013-09-07 15:20:00,75.4,51.3,32.87,North,0,0.0,0.0,43,0.00,,,-99.99,pyweather 0.1,2013-09-07 22:20:00,
2013-09-07 15:28:00,74.5,52.4,32.87,North,0,0.0,0.0,46,0.00,,,-99.99,pyweather 0.1,2013-09-07 22:28:00,
2013-09-07 15:36:00,75.7,52.3,32.84,North,0,0.0,0.0,44,0.00,,,-99.99,pyweather 0.1,2013-09-07 22:36:00,
2013-09-07 15:44:00,76.1,52.6,32.84,North,0,0.0,0.0,44,0.00,,,-99.99,pyweather 0.1,2013-09-07 22:44:00,
2013-09-07 15:52:00,75.9,51.2,32.84,North,0,0.0,0.0,42,0.00,,,-99.99,pyweather 0.1,2013-09-07 22:52:00,
2013-09-07 16:00:00,74.8,50.9,32.84,North,0,0.0,0.0,43,0.00,,,-99.99,pyweather 0.1,2013-09-07 23:00:00,
2013-09-07 16:08:00,74.1,50.8,32.84,North,0,0.0,0.0,44,0.00,,,-99.99,pyweather 0.1,2013-09-07 23:08:00,
2013-09-07 16:16:00,73.6,51.0,32.84,North,0,0.0,0.0,45,0.00,,,-99.99,pyweather 0.1,2013-09-07 23:16:00,
2013-09-07 16:24:00,73.6,50.3,32.84,North,0,0.0,0.0,44,0.00,,,-99.99,pyweather 0.1,2013-09-07 23:24:00,
2013-09-07 16:32:00,72.7,51.3,32.84,North,0,0.0,0.0,47,0.00,,,-99.99,pyweather 0.1,2013-09-07 23:32:00,
2013-09-07 16:40:00,72.3,51.0,32.84,North,0,0.0,0.0,47,0.00,,,-99.99,pyweather 0.1,2013-09-07 23:40:00,
2013-09-07 16:48:00,72.1,51.4,32.84,North,0,0.0,0.0,48,0.00,,,-99.99,pyweather 0.1,2013-09-07 23:48:00,
2013-09-07 16:56:00,71.8,50.5,32.84,North,0,0.0,0.0,47,0.00,,,-99.99,pyweather 0.1,2013-09-07 23:56:00,
2013-09-07 17:04:00,71.6,50.9,32.84,North,0,0.0,0.0,48,0.00,,,-99.99,pyweather 0.1,2013-09-08 00:04:00,
2013-09-07 17:12:00,71.4,50.7,32.84,North,0,0.0,0.0,48,0.00,,,-99.99,pyweather 0.1,2013-09-08 00:12:00,
2013-09-07 17:20:00,71.2,51.1,32.84,North,0,0.0,0.0,49,0.00,,,-99.99,pyweather 0.1,2013-09-08 00:20:00,
2013-09-07 17:28:00,71.1,51.0,32.84,North,0,0.0,0.0,49,0.00,,,-99.99,pyweather 0.1,2013-09-08 00:28:00,
2013-09-07 17:37:00,70.9,50.8,32.81,North,0,0.0,0.0,49,0.00,,,-99.99,pyweather 0.1,2013-09-08 00:37:00,
2013-09-07 17:45:00,70.9,50.2,32.81,North,0,0.0,0.0,48,0.00,,,-99.99,pyweather 0.1,2013-09-08 00:45:00,
2013-09-07 17:53:00,70.5,50.5,32.84,North,0,0.0,0.0,49,0.00,,,-99.99,pyweather 0.1,2013-09-08 00:53:00,
2013-09-07 18:01:00,70.5,50.5,32.84,North,0,0.0,0.0,49,0.00,,,-99.99,pyweather 0.1,2013-09-08 01:01:00,
2013-09-07 18:09:00,70.3,50.8,32.84,North,0,0.0,0.0,50,0.00,,,-99.99,pyweather 0.1,2013-09-08 01:09:00,
2013-09-07 18:17:00,70.2,50.7,32.84,North,0,0.0,0.0,50,0.00,,,-99.99,pyweather 0.1,2013-09-08 01:17:00,
2013-09-07 18:25:00,70.0,50.5,32.84,North,0,0.0,0.0,50,0.00,,,-99.99,pyweather 0.1,2013-09-08 01:25:00,
2013-09-07 18:33:00,69.8,50.3,32.84,North,0,0.0,0.0,50,0.00,,,-99.99,pyweather 0.1,2013-09-08 01:33:00,
2013-09-07 18:41:00,69.4,51.1,32.84,North,0,0.0,0.0,52,0.00,,,-99.99,pyweather 0.1,2013-09-08 01:41:00,
2013-09-07 18:49:00,69.3,50.9,32.84,North,0,0.0,0.0,52,0.00,,,-99.99,pyweather 0.1,2013-09-08 01:49:00,
2013-09-07 18:57:00,68.9,51.6,32.84,North,0,0.0,0.0,54,0.00,,,-99.99,pyweather 0.1,2013-09-08 01:57:00,
2013-09-07 19:05:00,68.7,51.9,32.84,North,0,0.0,0.0,55,0.00,,,-99.99,pyweather 0.1,2013-09-08 02:05:00,
2013-09-07 19:13:00,68.4,51.6,32.84,North,0,0.0,0.0,55,0.00,,,-99.99,pyweather 0.1,2013-09-08 02:13:00,
2013-09-07 19:21:00,68.2,52.4,32.84,North,0,0.0,0.0,57,0.00,,,-99.99,pyweather 0.1,2013-09-08 02:21:00,
2013-09-07 19:29:00,67.8,52.5,32.84,North,0,0.0,0.0,58,0.00,,,-99.99,pyweather 0.1,2013-09-08 02:29:00,
2013-09-07 19:37:00,67.6,52.3,32.84,North,0,0.0,0.0,58,0.00,,,-99.99,pyweather 0.1,2013-09-08 02:37:00,
2013-09-07 19:45:00,67.3,52.5,32.84,North,0,0.0,0.0,59,0.00,,,-99.99,pyweather 0.1,2013-09-08 02:45:00,
2013-09-07 19:53:00,67.1,52.8,32.84,North,0,0.0,0.0,60,0.00,,,-99.99,pyweather 0.1,2013-09-08 02:53:00,
2013-09-07 20:01:00,66.7,52.9,32.84,North,0,0.0,0.0,61,0.00,,,-99.99,pyweather 0.1,2013-09-08 03:01:00,
2013-09-07 20:09:00,66.4,53.4,32.84,North,0,0.0,0.0,63,0.00,,,-99.99,pyweather 0.1,2013-09-08 03:09:00,
2013-09-07 20:17:00,66.0,53.5,32.84,North,0,0.0,0.0,64,0.00,,,-99.99,pyweather 0.1,2013-09-08 03:17:00,
2013-09-07 20:25:00,65.7,53.6,32.84,North,0,0.0,0.0,65,0.00,,,-99.99,pyweather 0.1,2013-09-08 03:25:00,
2013-09-07 20:33:00,65.1,53.9,32.84,North,0,0.0,0.0,67,0.00,,,-99.99,pyweather 0.1,2013-09-08 03:33:00,
2013-09-07 20:41:00,64.8,54.0,32.84,North,0,0.0,0.0,68,0.00,,,-99.99,pyweather 0.1,2013-09-08 03:41:00,
2013-09-07 20:49:00,64.4,54.0,32.84,North,0,0.0,0.0,69,0.00,,,-99.99,pyweather 0.1,2013-09-08 03:49:00,
2013-09-07 20:57:00,64.2,54.2,32.84,North,0,0.0,0.0,70,0.00,,,-99.99,pyweather 0.1,2013-09-08 03:57:00,
2013-09-07 21:05:00,64.0,54.5,32.84,North,0,0.0,0.0,71,0.00,,,-99.99,pyweather 0.1,2013-09-08 04:05:00,
2013-09-07 21:13:00,63.9,54.7,32.84,North,0,0.0,0.0,72,0.00,,,-99.99,pyweather 0.1,2013-09-08 04:13:00,
2013-09-07 21:21:00,63.7,54.5,32.87,North,0,0.0,0.0,72,0.00,,,-99.99,pyweather 0.1,2013-09-08 04:21:00,
2013-09-07 21:29:00,63.5,54.7,32.87,North,0,0.0,0.0,73,0.00,,,-99.99,pyweather 0.1,2013-09-08 04:29:00,
2013-09-07 21:37:00,63.1,54.3,32.84,North,0,0.0,0.0,73,0.00,,,-99.99,pyweather 0.1,2013-09-08 04:37:00,
2013-09-07 21:45:00,63.0,54.5,32.84,North,0,0.0,0.0,74,0.00,,,-99.99,pyweather 0.1,2013-09-08 04:45:00,
2013-09-07 21:53:00,62.8,54.4,32.87,North,0,0.0,0.0,74,0.00,,,-99.99,pyweather 0.1,2013-09-08 04:53:00,
2013-09-07 22:01:00,62.8,54.8,32.87,North,0,0.0,0.0,75,0.00,,,-99.99,pyweather 0.1,2013-09-08 05:01:00,
2013-09-07 22:09:00,62.6,54.6,32.87,North,0,0.0,0.0,75,0.00,,,-99.99,pyweather 0.1,2013-09-08 05:09:00,
2013-09-07 22:17:00,62.4,54.8,32.87,North,0,0.0,0.0,76,0.00,,,-99.99,pyweather 0.1,2013-09-08 05:17:00,
2013-09-07 22:25:00,62.4,55.1,32.87,North,0,0.0,0.0,77,0.00,,,-99.99,pyweather 0.1,2013-09-08 05:25:00,
2013-09-07 22:33:00,62.2,55.0,32.87,North,0,0.0,0.0,77,0.00,,,-99.99,pyweather 0.1,2013-09-08 05:33:00,
2013-09-07 22:41:00,62.2,55.3,32.87,North,0,0.0,0.0,78,0.00,,,-99.99,pyweather 0.1,2013-09-08 05:41:00,
2013-09-07 22:49:00,62.1,55.1,32.87,North,0,0.0,0.0,78,0.00,,,-99.99,pyweather 0.1,2013-09-08 05:49:00,
2013-09-07 22:57:00,61.9,55.0,32.87,North,0,0.0,0.0,78,0.00,,,-99.99,pyweather 0.1,2013-09-08 05:57:00,
2013-09-07 23:05:00,61.9,55.3,32.87,North,0,0.0,0.0,79,0.00,,,-99.99,pyweather 0.1,2013-09-08 06:05:00,
2013-09-07 23:13:00,61.7,55.1,32.87,North,0,0.0,0.0,79,0.00,,,-99.99,pyweather 0.1,2013-09-08 06:13:00,
2013-09-07 23:21:00,61.7,55.1,32.87,North,0,0.0,0.0,79,0.00,,,-99.99,pyweather 0.1,2013-09-08 06:21:00,
2013-09-07 23:29:00,61.5,55.0,32.87,North,0,0.0,0.0,79,0.00,,,-99.99,pyweather 0.1,2013-09-08 06:29:00,
2013-09-07 23:37:00,61.3,54.8,32.87,North,0,0.0,0.0,79,0.00,,,-99.99,pyweather 0.1,2013-09-08 06:37:00,
2013-09-07 23:45:00,61.3,55.1,32.87,North,0,0.0,0.0,80,0.00,,,-99.99,pyweather 0.1,2013-09-08 06:45:00,
2013-09-07 23:53:00,61.2,55.0,32.87,North,0,0.0,0.0,80,0.00,,,-99.99,pyweather 0.1,2013-09-08 06:53:00,